Weather History for Mildenhall RAF, United Kingdom

Change the Weather History Date:

Monday, November 26, 2012

  Actual Average (EGSC) Record (EGSC)
Temperature  
Mean Temperature 47 °F -  
Max Temperature 50 °F 47 °F 62 °F (2002)
Min Temperature 44 °F 40 °F 26 °F (2010)
Degree Days  
Heating Degree Days 18    
Moisture  
Dew Point 48 °F    
Average Humidity 100    
Maximum Humidity 100    
Minimum Humidity 99    
Precipitation  
Precipitation 0.00 in - - ()
Sea Level Pressure  
Sea Level Pressure 29.47 in    
Wind  
Wind Speed 8 mph ()    
Max Wind Speed 14 mph    
Max Gust Speed 18 mph    
Visibility 5.9 miles    
Events Rain    
Averages and records for this station are not official NWS values.
T = Trace of Precipitation, MM = Missing Value Source: Averaged Metar Reports

Daily Weather History Graph

Daily Weather History Graph

Search for Another Location

Airport:

Trip Planner

Search our weather history database for the weather conditions in past years. The results will help you decide how hot, cold, wet, or windy it might be!

Date:

Astronomy

Nov. 26, 2012 Rise Set
Actual Time 7:38 AM GMT 3:52 PM GMT
Civil Twilight 6:58 AM GMT 4:31 PM GMT
Nautical Twilight 6:16 AM GMT 5:14 PM GMT
Astronomical Twilight 5:35 AM GMT 5:55 PM GMT
Moon 2:43 PM GMT (11/26) 5:24 AM GMT (11/26)
Length of Visible Light 9h 32m
Length of Day
8h 13m
Waxing Gibbous, 96% of the Moon is Illuminated
Nov 26
Waxing Gibbous
Nov 28
Full
Dec 6
Last Quarter
Dec 13
New
Dec 20
First Quarter

Hourly Weather History & Observations

Time (GMT) Temp. Windchill Dew Point Humidity Pressure Visibility Wind Dir Wind Speed Gust Speed Precip Events Conditions
12:58 AM 49.3 °F - 49.3 °F 100% 29.58 in 6.2 mi SSE 10.4 mph - N/A   Mostly Cloudy
1:58 AM 48.9 °F - 48.7 °F 99% 29.56 in 6.2 mi SSE 13.8 mph - N/A   Mostly Cloudy
2:38 AM 48.2 °F - 48.2 °F 100% 29.53 in 6.2 mi SSE 11.5 mph - N/A   Mostly Cloudy
2:58 AM 48.9 °F - 48.9 °F 100% 29.53 in 6.2 mi SSE 13.8 mph - N/A   Overcast
3:18 AM 48.2 °F - 48.2 °F 100% 29.51 in 6.2 mi SE 12.7 mph - N/A   Mostly Cloudy
3:58 AM 49.1 °F - 48.9 °F 99% 29.51 in 6.2 mi SSE 11.5 mph - N/A   Mostly Cloudy
4:23 AM 48.2 °F - 48.2 °F 100% 29.49 in 6.2 mi SSE 12.7 mph - N/A   Overcast
4:32 AM 48.2 °F - 48.2 °F 100% 29.49 in 6.2 mi SSE 11.5 mph - N/A Rain Light Rain
4:47 AM 48.2 °F - 48.2 °F 100% 29.49 in 6.2 mi SSE 10.4 mph - N/A Rain Light Rain
4:57 AM 48.2 °F - 48.2 °F 100% 29.49 in 6.2 mi SSE 8.1 mph - N/A Rain Light Rain
4:58 AM 48.2 °F - 48.2 °F 100% 29.50 in 6.2 mi SSE 8.1 mph - N/A Rain Light Rain
5:04 AM 48.2 °F - 48.2 °F 100% 29.48 in 6.2 mi WSW 9.2 mph - N/A Rain Light Rain
5:19 AM 48.2 °F - 48.2 °F 100% 29.48 in 6.2 mi SSE 12.7 mph - N/A Rain Light Rain
5:29 AM 48.2 °F - 48.2 °F 100% 29.48 in 6.2 mi South 9.2 mph 18.4 mph N/A Rain Light Rain
5:34 AM 48.2 °F - 48.2 °F 100% 29.48 in 6.2 mi SSE 8.1 mph - N/A Rain Light Rain
5:39 AM 48.2 °F - 48.2 °F 100% 29.47 in 6.2 mi SSE 9.2 mph - N/A Rain Light Rain
5:58 AM 48.6 °F - 48.6 °F 100% 29.48 in 6.2 mi SSE 10.4 mph - N/A Rain Light Rain
6:08 AM 48.2 °F - 48.2 °F 100% 29.47 in 6.2 mi SSE 8.1 mph - N/A Rain Light Rain
6:20 AM 48.2 °F - 48.2 °F 100% 29.47 in 6.2 mi SSE 9.2 mph - N/A   Overcast
6:23 AM 48.2 °F - 48.2 °F 100% 29.47 in 6.2 mi SSE 6.9 mph - N/A Rain Light Rain
6:49 AM 48.2 °F - 48.2 °F 100% 29.46 in 6.2 mi SE 6.9 mph - N/A   Mostly Cloudy
6:54 AM 48.2 °F - 48.2 °F 100% 29.46 in 6.2 mi SE 8.1 mph - N/A   Scattered Clouds
6:58 AM 47.7 °F - 47.7 °F 100% 29.47 in 6.2 mi SE 8.1 mph - N/A   Scattered Clouds
7:09 AM 48.2 °F - 48.2 °F 100% 29.46 in 6.2 mi SE 8.1 mph - N/A Rain Light Rain
7:20 AM 48.2 °F - 48.2 °F 100% 29.46 in 6.2 mi SE 8.1 mph - N/A   Partly Cloudy
7:27 AM 46.4 °F 42.4 °F 46.4 °F 100% 29.46 in 6.2 mi ESE 8.1 mph - N/A Rain Light Rain
7:37 AM 46.4 °F 42.4 °F 46.4 °F 100% 29.46 in 6.2 mi SE 8.1 mph - N/A Rain Light Rain
7:47 AM 48.2 °F - 48.2 °F 100% 29.47 in 6.2 mi SE 8.1 mph - N/A Rain Light Rain
7:58 AM 47.5 °F - 47.5 °F 100% 29.48 in 6.2 mi SE 8.1 mph - N/A Rain Light Rain
8:04 AM 48.2 °F - 48.2 °F 100% 29.47 in 6.2 mi SE 8.1 mph - N/A   Overcast
8:09 AM 48.2 °F - 48.2 °F 100% 29.47 in 6.2 mi SE 8.1 mph - N/A   Overcast
8:19 AM 48.2 °F - 48.2 °F 100% 29.47 in 6.2 mi SSE 10.4 mph - N/A   Mostly Cloudy
8:23 AM 48.2 °F - 48.2 °F 100% 29.47 in 6.2 mi South 6.9 mph - N/A Rain Light Rain
8:28 AM 48.2 °F - 48.2 °F 100% 29.47 in 5.6 mi SSE 8.1 mph - N/A Rain Light Rain
8:36 AM 48.2 °F - 48.2 °F 100% 29.47 in 6.2 mi SSE 9.2 mph - N/A   Overcast
8:43 AM 48.2 °F - 48.2 °F 100% 29.47 in 6.2 mi SE 6.9 mph - N/A Rain Light Rain
8:55 AM 48.2 °F - 48.2 °F 100% 29.47 in 6.2 mi SE 6.9 mph - N/A   Overcast
8:58 AM 48.2 °F - 48.2 °F 100% 29.48 in 6.2 mi SE 6.9 mph - N/A   Overcast
9:13 AM 46.4 °F 42.4 °F 46.4 °F 100% 29.47 in 6.2 mi SE 8.1 mph - N/A   Overcast
9:43 AM 46.4 °F 42.9 °F 46.4 °F 100% 29.46 in 6.2 mi SE 6.9 mph - N/A   Scattered Clouds
9:58 AM 47.7 °F - 47.7 °F 100% 29.47 in 6.2 mi SE 6.9 mph - N/A   Partly Cloudy
10:58 AM 48.2 °F - 48.2 °F 100% 29.46 in 6.2 mi SE 8.1 mph - N/A   Mostly Cloudy
11:03 AM 48.2 °F - 48.2 °F 100% 29.45 in 6.2 mi SE 5.8 mph - N/A   Mostly Cloudy
11:28 AM 48.2 °F - 48.2 °F 100% 29.44 in 5.6 mi South 3.5 mph - N/A   Mostly Cloudy
11:33 AM 48.2 °F - 48.2 °F 100% 29.44 in 3.7 mi SE 3.5 mph - N/A   Mostly Cloudy
11:38 AM 48.2 °F - 48.2 °F 100% 29.44 in 3.7 mi SSE 3.5 mph - N/A   Mostly Cloudy
11:53 AM 48.2 °F - 48.2 °F 100% 29.44 in 2.5 mi South 2.3 mph - N/A   Overcast
11:58 AM 48.7 °F - 48.7 °F 100% 29.45 in - South 2.3 mph - N/A   Overcast
12:03 PM 48.2 °F - 48.2 °F 100% 29.44 in 2.5 mi South 2.3 mph - N/A   Overcast
12:08 PM 48.2 °F - 48.2 °F 100% 29.44 in 5.0 mi SSE 3.5 mph - N/A   Overcast
12:58 PM 50.0 °F - 50.0 °F 100% 29.44 in 6.2 mi SSW 2.3 mph - N/A   Overcast
1:58 PM 50.2 °F - 50.0 °F 99% 29.44 in 1.7 mi NNW 2.3 mph - N/A   Overcast
2:03 PM 50.0 °F - 50.0 °F 100% 29.43 in 1.0 mi NNW 3.5 mph - N/A   Overcast
2:58 PM 47.8 °F - 47.7 °F 99% 29.44 in 6.2 mi NNE 2.3 mph - N/A   Scattered Clouds
3:58 PM 47.5 °F - 47.5 °F 100% 29.45 in 6.2 mi NW 4.6 mph - N/A   Overcast
4:43 PM 46.4 °F 44.3 °F 46.4 °F 100% 29.44 in 6.2 mi North 4.6 mph - N/A   Overcast
4:58 PM 46.4 °F 45.2 °F 46.4 °F 100% 29.45 in 6.2 mi North 3.5 mph - N/A   Overcast
5:58 PM 46.4 °F 44.3 °F 46.4 °F 100% 29.45 in 6.2 mi North 4.6 mph - N/A   Overcast
6:18 PM 46.4 °F 44.3 °F 46.4 °F 100% 29.45 in 6.2 mi North 4.6 mph - N/A   Overcast
6:58 PM 45.1 °F - 45.1 °F 100% 29.46 in 6.2 mi North 2.3 mph - N/A   Overcast
7:18 PM 44.6 °F 43.1 °F 44.6 °F 100% 29.45 in 6.2 mi NW 3.5 mph - N/A   Overcast
7:33 PM 44.6 °F 41.4 °F 44.6 °F 100% 29.46 in 6.2 mi NNW 5.8 mph - N/A   Overcast
7:53 PM 44.6 °F 41.4 °F 44.6 °F 100% 29.46 in 6.2 mi NNW 5.8 mph - N/A   Overcast
7:58 PM 45.3 °F 42.3 °F 45.3 °F 100% 29.47 in 6.2 mi NNW 5.8 mph - N/A   Overcast
8:23 PM 44.6 °F 41.4 °F 44.6 °F 100% 29.46 in 6.2 mi NNW 5.8 mph - N/A   Overcast
8:58 PM 45.3 °F 43.0 °F 45.3 °F 100% 29.48 in 6.2 mi NNW 4.6 mph - N/A   Overcast
9:58 PM 45.1 °F 41.4 °F 45.1 °F 100% 29.48 in 6.2 mi NNW 6.9 mph - N/A   Overcast
10:58 PM 44.8 °F 41.0 °F 44.8 °F 100% 29.48 in 6.2 mi North 6.9 mph - N/A   Overcast
11:05 PM 44.6 °F 40.7 °F 44.6 °F 100% 29.47 in 6.2 mi North 6.9 mph - N/A   Overcast
11:45 PM 46.4 °F 42.9 °F 46.4 °F 100% 29.47 in 6.2 mi NNW 6.9 mph - N/A   Overcast
11:48 PM 46.4 °F 42.4 °F 46.4 °F 100% 29.47 in 6.2 mi NNW 8.1 mph - N/A Rain Light Rain
11:58 PM 45.9 °F 42.3 °F 45.9 °F 100% 29.48 in 6.2 mi NNW 6.9 mph - N/A Rain Light Rain